N4OOJ-13 Weather Reports


time (UTC)temp
F
wind
direction
speed
knots
gust
knots
rain 1hr
in
rain 24hr
in
rain mn
in
humidity
%
barometer
mb
20260506004019 66 0.0 0.0 0.00 0.00 0.00 74 1017.8
20260506003026 67 94 1.7 2.6 0.00 0.00 0.00 73 1017.9
20260506002025 68 91 1.7 2.6 0.00 0.00 0.00 71 1017.9
20260506001025 69 107 1.7 3.5 0.00 0.00 0.00 70 1017.9
20260506000020 70 223 0.9 3.5 0.00 0.00 0.00 68 1017.9
20260505235020 71 144 1.7 2.6 0.00 0.00 0.00 65 1017.9
20260505234026 72 268 0.9 1.7 0.00 0.00 0.00 62 1017.9
20260505233020 74 227 2.6 4.3 0.00 0.00 0.00 59 1017.5
20260505232021 77 325 2.6 5.2 0.00 0.00 0.00 55 1017.6
20260505231020 77 209 1.7 2.6 0.00 0.00 0.00 53 1017.5
20260505230020 78 215 2.6 5.2 0.00 0.00 0.00 53 1017.5
20260505225032 77 118 2.6 7.0 0.00 0.00 0.00 52 1017.6
20260505224027 79 102 2.6 4.3 0.00 0.00 0.00 51 1017.6
20260505223032 79 118 3.5 6.1 0.00 0.00 0.00 51 1017.5
20260505222028 80 120 2.6 4.3 0.00 0.00 0.00 49 1017.5
20260505221028 80 64 2.6 5.2 0.00 0.00 0.00 48 1017.7
20260505220029 79 72 3.5 6.1 0.00 0.00 0.00 48 1017.6
20260505215024 79 102 3.5 5.2 0.00 0.00 0.00 49 1017.5
20260505214018 80 110 3.5 5.2 0.00 0.00 0.00 48 1017.7
20260505213042 79 176 1.7 5.2 0.00 0.00 0.00 50 1017.6
20260505212026 80 64 4.3 7.0 0.00 0.00 0.00 49 1017.7
20260505211016 80 312 2.6 5.2 0.00 0.00 0.00 48 1017.7
20260505210033 82 280 3.5 8.7 0.00 0.00 0.00 46 1017.7
20260505205033 82 69 3.5 6.1 0.00 0.00 0.00 44 1017.5
20260505204033 81 75 3.5 7.8 0.00 0.00 0.00 45 1017.6
20260505203032 82 155 3.5 5.2 0.00 0.00 0.00 46 1017.6
20260505202021 82 19 4.3 6.1 0.00 0.00 0.00 45 1017.6
20260505201016 84 210 3.5 5.2 0.00 0.00 0.00 44 1017.9
20260505200023 82 204 2.6 4.3 0.00 0.00 0.00 44 1018.0
20260505195017 82 81 5.2 7.8 0.00 0.00 0.00 44 1017.9
20260505194018 83 158 3.5 9.6 0.00 0.00 0.00 45 1018.0
20260505193031 83 84 2.6 4.3 0.00 0.00 0.00 45 1018.5
20260505192026 84 78 4.3 6.1 0.00 0.00 0.00 42 1018.8
20260505191021 87 272 3.5 6.1 0.00 0.00 0.00 40 1018.8
20260505190016 85 75 2.6 6.1 0.00 0.00 0.00 43 1018.9
20260505185029 86 23 3.5 5.2 0.00 0.00 0.00 42 1018.9
20260505184029 83 5 3.5 5.2 0.00 0.00 0.00 44 1018.9
20260505183029 86 210 4.3 7.8 0.00 0.00 0.00 42 1018.8
20260505182019 84 183 3.5 6.1 0.00 0.00 0.00 45 1018.5
20260505181026 81 15 2.6 6.1 0.00 0.00 0.00 48 1018.7
20260505180021 81 87 2.6 8.7 0.00 0.00 0.00 49 1018.7
20260505175015 82 83 3.5 6.1 0.00 0.00 0.00 45 1018.6
20260505174022 81 74 2.6 5.2 0.00 0.00 0.00 48 1018.7
20260505173016 79 77 2.6 4.3 0.00 0.00 0.00 49 1018.8
20260505172016 83 265 3.5 6.1 0.00 0.00 0.00 45 1019.0
20260505171016 79 141 2.6 5.2 0.00 0.00 0.00 50 1019.3
20260505170028 79 72 2.6 4.3 0.00 0.00 0.00 49 1019.3
20260505165023 81 29 2.6 6.1 0.00 0.00 0.00 49 1019.3
20260505164021 82 226 2.6 3.5 0.00 0.00 0.00 48 1019.7
20260505163027 82 60 5.2 9.6 0.00 0.00 0.00 46 1019.7
20260505162021 82 4 2.6 4.3 0.00 0.00 0.00 47 1019.7
20260505161017 81 272 2.6 7.0 0.00 0.00 0.00 49 1020.0
20260505153027 80 237 1.7 3.5 0.00 0.00 0.00 52 1019.9
20260505152022 80 268 2.6 5.2 0.00 0.00 0.00 50 1019.9
20260505151021 80 261 2.6 5.2 0.00 0.00 0.00 50 1019.9
20260505125019 70 0.0 0.0 0.00 0.00 0.00 76 1019.7
20260505124032 69 0.0 0.0 0.00 0.00 0.00 77 1019.8
20260505123031 66 0.0 0.0 0.00 0.00 0.00 79 1019.9
20260505122024 63 0.0 0.0 0.00 0.00 0.00 82 1019.9
20260505121023 60 0.0 0.0 0.00 0.00 0.00 87 1019.9
20260505120017 57 0.0 0.0 0.00 0.00 0.00 91 1019.8
20260505115017 55 0.0 0.0 0.00 0.00 0.00 98 1019.8
20260505114017 53 0.0 0.0 0.00 0.00 0.00 99 1019.7
20260505113030 49 0.0 0.0 0.00 0.00 0.00 99 1019.5
20260505112025 48 68 0.0 2.6 0.00 0.00 0.00 99 1019.5
20260505111020 48 0.0 0.0 0.00 0.00 0.00 99 1019.3
20260505102015 48 0.0 0.0 0.00 0.00 0.00 99 1018.7
20260505101033 48 0.0 0.0 0.00 0.00 0.00 99 1018.7
20260505100019 48 0.0 0.0 0.00 0.00 0.00 99 1018.7
20260505095018 49 0.0 0.0 0.00 0.00 0.00 99 1018.6
20260505094025 49 0.0 0.0 0.00 0.00 0.00 99 1018.5
20260505093018 49 0.0 0.0 0.00 0.00 0.00 99 1018.3
20260505092019 49 0.0 0.0 0.00 0.00 0.00 99 1018.4
20260505091019 49 0.0 0.0 0.00 0.00 0.00 99 1018.4
20260505090019 49 0.0 0.0 0.00 0.00 0.00 99 1018.4
20260505085027 49 0.0 0.0 0.00 0.00 0.00 99 1018.3
20260505084021 49 0.0 0.0 0.00 0.00 0.00 99 1018.1
20260505083020 50 0.0 0.0 0.00 0.00 0.00 99 1018.1
20260505082032 50 0.0 0.0 0.00 0.00 0.00 99 1018.0
20260505081030 50 0.0 0.0 0.00 0.00 0.00 99 1018.0
20260505080024 50 0.0 0.0 0.00 0.00 0.00 99 1018.0
20260505075018 50 0.0 0.0 0.00 0.00 0.00 99 1017.8
20260505074030 50 0.0 0.0 0.00 0.00 0.00 99 1017.9
20260505073025 50 0.0 0.0 0.00 0.00 0.00 99 1017.9
20260505072020 50 0.0 0.0 0.00 0.00 0.00 99 1017.9
20260505071033 50 113 0.0 0.9 0.00 0.00 0.00 99 1017.9
20260505070033 50 0.0 0.9 0.00 0.00 0.00 99 1018.0
20260505065028 51 0.0 0.0 0.00 0.00 0.00 99 1018.0
20260505064028 51 0.0 0.0 0.00 0.00 0.00 99 1018.1
20260505063026 51 0.0 0.0 0.00 0.00 0.00 99 1018.2
20260505062025 51 0.0 0.0 0.00 0.00 0.00 99 1018.4
20260505061019 51 0.0 0.0 0.00 0.00 0.00 99 1018.6
20260505060027 51 0.0 0.0 0.00 0.00 0.00 99 1018.6
20260505055027 51 0.0 0.0 0.00 0.00 0.00 98 1018.7
20260505054026 52 0.0 0.0 0.00 0.00 0.00 98 1018.8
20260505053021 52 0.0 0.0 0.00 0.00 0.00 98 1019.0
20260505052033 52 0.0 0.0 0.00 0.00 0.00 97 1019.1
20260505051033 52 0.0 0.0 0.00 0.00 0.00 97 1019.1
20260505041032 54 158 0.0 1.7 0.00 0.00 0.00 93 1019.2
20260505040027 54 0.0 0.0 0.00 0.00 0.00 91 1019.2
20260505035020 54 0.0 0.0 0.00 0.00 0.00 91 1019.2
20260505034016 55 0.0 0.0 0.00 0.00 0.00 91 1019.1
20260505033028 55 0.0 0.0 0.00 0.00 0.00 89 1019.2
20260505032027 56 0.0 0.0 0.00 0.00 0.00 88 1019.2
20260505031027 56 0.0 0.0 0.00 0.00 0.00 87 1019.2
20260505030027 56 0.0 0.0 0.00 0.00 0.00 86 1019.2
20260505025022 57 0.0 0.0 0.00 0.00 0.00 86 1019.1
20260505024016 57 0.0 0.0 0.00 0.00 0.00 85 1019.0
20260505023033 58 0.0 0.0 0.00 0.00 0.00 84 1019.0
20260505022032 58 0.0 0.0 0.00 0.00 0.00 81 1018.9
20260505021033 59 0.0 0.0 0.00 0.00 0.00 79 1018.9
20260505020022 59 0.0 0.0 0.00 0.00 0.00 79 1018.9
20260505015021 59 0.0 0.0 0.00 0.00 0.00 78 1018.9
20260505014021 60 0.0 0.0 0.00 0.00 0.00 75 1018.8
20260505013021 60 0.0 0.0 0.00 0.00 0.00 74 1018.8
20260505012026 60 0.0 0.0 0.00 0.00 0.00 76 1018.7
20260505011019 61 0.0 0.0 0.00 0.00 0.00 73 1018.6
20260505010026 61 0.0 0.0 0.00 0.00 0.00 73 1018.6
20260505005025 62 0.0 0.0 0.00 0.00 0.00 72 1018.6